Weather observations for the past three days for
Rock Springs, Rock Springs-Sweetwater County Airport
Imperial (Metric)
Date Time (mdt) Wind (mph) Vis. (mi.) Weather Sky Cond. Temperature (ºF) Relative Humidity Wind Chill (°F) Heat Index (°F) Pressure Precipitation (in)
Air Dwpt 6 hour altimeter (in) sea level (mb) 1 hr 3 hr 6 hr
Max. Min.
18 09:54 W 16 G 22 10.00 Fair CLR 45 21 39% 38 30.08 1015.8
18 08:54 W 13 10.00 Fair CLR 42.1 21.9 45% 36 30.08 1016.0
18 07:54 W 16 10.00 Fair CLR 37.9 21 51% 30 30.07 1015.0
18 06:54 W 15 10.00 Fair CLR 37 21.9 54% 29 30.07 1013.6
18 05:54 W 16 10.00 Fair CLR 35.1 21 37 34 57% 26 30.05 1012.8
18 04:54 W 15 10.00 Fair CLR 34 21 59% 25 30.03 1011.7
18 03:54 W 18 10.00 Fair CLR 34 21 59% 24 30.02 1011.1
18 02:54 W 16 10.00 Fair CLR 35.1 21 57% 26 30.01 1010.4
18 01:54 W 18 10.00 Fair CLR 35.1 21.9 59% 25 30 1009.7
18 00:54 W 18 G 26 10.00 Fair CLR 36 23 59% 26 30 1009.3
17 23:54 W 25 G 36 10.00 Fair and Breezy CLR 37 21.9 66.9 37 54% 26 29.97 1008.3
17 22:54 W 30 G 41 10.00 Fair and Windy CLR 39 21 48% 28 29.96 1008.3
17 21:54 W 26 G 41 10.00 Mostly Cloudy and Windy BKN065 42.1 19.9 41% 33 29.94 1007.5
17 20:54 W 36 G 48 10.00 Mostly Cloudy and Windy FEW075 SCT090 BKN110 46 21.9 38% 37 29.9 1006.2
17 19:54 W 35 G 45 10.00 Overcast and Windy BKN055 BKN065 OVC100 53.1 30 41% 29.84 1003.5
17 18:54 W 30 G 41 10.00 Fair and Windy CLR 62.1 34 35% 29.72 999.0
17 17:54 W 26 G 38 10.00 Partly Cloudy and Windy SCT110 66 33.1 81 66 29% 29.64 995.3
17 16:54 W 25 G 35 10.00 Mostly Cloudy and Breezy FEW090 BKN110 69.1 32 25% 29.62 994.3
17 15:54 W 18 G 33 10.00 Mostly Cloudy BKN110 73 33.1 23% 29.62 994.2
17 14:54 W 21 G 38 10.00 Mostly Cloudy and Breezy BKN110 75 30 19% 76 29.61 993.6
17 13:54 W 28 G 43 10.00 Partly Cloudy and Windy SCT120 79 28.9 16% 78 29.6 992.8
17 12:54 SW 14 G 33 10.00 A Few Clouds FEW110 79 30 17% 78 29.61 993.0
17 11:54 W 12 G 20 10.00 Fair CLR 75.9 30 77 55.9 18% 76 29.64 994.1
17 10:54 SW 16 G 24 10.00 Fair CLR 73.9 28.9 19% 29.67 995.4
17 09:54 SW 14 10.00 Fair CLR 72 30.9 22% 29.7 995.9
17 08:54 Calm 10.00 Fair CLR 66 32 28% 29.72 997.0
17 07:54 N 3 10.00 Fair CLR 62.1 32 32% 29.73 997.3
17 06:54 SE 5 10.00 Fair CLR 57.9 28.9 33% 29.74 998.0
17 05:54 E 5 10.00 Fair CLR 59 27 63 57 29% 29.75 998.6
17 04:54 S 5 10.00 Fair CLR 57.9 27 31% 29.76 998.6
17 03:54 S 5 10.00 Fair CLR 57 28 33% 29.77 999.2
17 02:54 S 5 10.00 Fair CLR 57.9 28 32% 29.78 999.5
17 01:54 NW 3 10.00 A Few Clouds FEW120 59 28 31% 29.79 1000.2
17 00:54 N 8 10.00 A Few Clouds FEW120 61 27 27% 29.82 1000.8
16 23:54 N 8 10.00 Mostly Cloudy BKN110 63 27 75.9 63 26% 29.85 1002.1
16 22:54 NW 9 10.00 Mostly Cloudy FEW100 BKN120 64 28 26% 29.86 1002.8
16 21:54 NW 12 10.00 Mostly Cloudy BKN100 66.9 28.9 24% 29.86 1003.0
16 20:54 NW 12 10.00 A Few Clouds FEW110 69.1 28.9 22% 29.84 1002.6
16 19:54 W 18 G 26 10.00 Fair CLR 73 28.9 19% 29.84 1002.2
16 18:54 W 15 10.00 Fair CLR 75 30.9 20% 76 29.84 1002.6
16 17:54 NW 10 10.00 Fair CLR 75 30.9 79 66.9 20% 76 29.84 1002.6
16 16:54 NW 9 G 21 10.00 Fair CLR 78.1 32 19% 77 29.86 1002.9
16 15:54 W 13 10.00 Fair CLR 77 30.9 18% 77 29.89 1003.5
16 14:54 NW 9 G 21 10.00 Fair CLR 75 30 19% 76 29.91 1004.3
16 13:54 Vrbl 5 10.00 Fair CLR 72 28 19% 29.94 1005.2
16 12:54 NW 8 G 16 10.00 Fair CLR 72 28 19% 29.96 1006.1
16 11:54 W 12 G 16 10.00 Fair CLR 69.1 28 69.1 48 22% 29.98 1006.8
16 10:54 Vrbl 5 10.00 Fair CLR 64 25 23% 30 1007.6
16 09:54 Vrbl 3 10.00 Fair CLR 61 28.9 30% 30.01 1008.0
16 08:54 NW 7 10.00 Fair CLR 57 30 36% 30.02 1008.7
16 07:54 NW 7 10.00 Fair CLR 55 30.9 40% 30.02 1008.5
16 06:54 SW 5 10.00 Fair CLR 48.9 33.1 55% 48 30.02 1008.8
16 05:54 NW 7 10.00 Fair CLR 51.1 30.9 62.1 50 46% 30.01 1008.2
16 04:54 W 8 10.00 Fair CLR 51.1 33.1 50% 30 1007.4
16 03:54 NW 9 10.00 Fair CLR 54 30 40% 29.98 1006.2
16 02:54 W 15 10.00 Fair CLR 57 25 29% 29.97 1005.5
16 01:54 W 12 10.00 Fair CLR 59 25 27% 29.96 1005.3
16 00:54 S 8 10.00 Fair CLR 59 24.1 26% 29.96 1005.7
15 23:54 S 6 10.00 Fair CLR 62.1 24.1 79 62.1 23% 29.97 1005.8
15 22:54 W 9 10.00 Fair CLR 64.9 21.9 19% 29.97 1005.5
15 21:54 W 20 G 29 10.00 Fair CLR 66.9 23 19% 29.96 1005.3
15 20:54 W 12 10.00 Fair CLR 68 24.1 19% 29.95 1005.5
15 19:54 W 17 G 33 10.00 Fair CLR 72 26.1 18% 29.93 1004.7
15 18:54 W 23 G 38 10.00 Fair and Breezy CLR 77 27 16% 77 29.93 1005.0
15 17:54 W 30 G 46 10.00 Fair and Windy CLR 79 27 84 75.9 15% 78 29.93 1004.2
15 16:54 W 28 G 41 10.00 Fair and Windy CLR 81 28 14% 79 29.93 1004.2
15 15:54 W 28 G 46 10.00 Fair and Windy CLR 82 27 13% 80 29.94 1005.0
15 14:54 W 25 G 43 10.00 A Few Clouds and Breezy FEW100 82 30 15% 80 29.95 1004.7
15 13:54 S 16 G 26 10.00 Fair CLR 79 30.9 17% 78 29.97 1005.7
15 12:54 SW 23 G 29 10.00 Fair and Breezy CLR 77 28 16% 77 30 1007.0
15 11:54 W 17 G 32 10.00 Fair CLR 75.9 34 77 54 22% 77 30.01 1007.1
15 10:54 W 21 G 30 10.00 Fair and Breezy CLR 75 39.9 28% 77 30.02 1007.6
Date Time (mdt) Wind (mph) Vis. (mi.) Weather Sky Cond. Air Dwpt Max. Min. Relative Humidity Wind Chill (°F) Heat Index (°F) altimeter (in) sea level (mb) 1 hr 3 hr 6 hr
6 hour
Temperature (ºF) Pressure Precipitation (in)